ICE38C CYYZ-BIKF

Flight info

Callsign ICE38C
Flight time N/A
Altitude 38000
Route SEDOG6 BOBSU DCT 46N078W DCT MT DCT GELLS DCT 5330N07000W DCT TEALS DCT UDMAR/M080F380 DCT TOXIT DCT 60N050W 6130N04000W 63N030W DCT EPENI DCT ELDIS ELDIS4N
Aircraft B38M/M-SDE1FGHILORVWXY/HB1

Departure

Time 2026-05-06 19:13
Airport Toronto Pearson International Airport (CYYZ)

Arrival

Time N/A
Airport Keflavik International Airport (BIKF)
Time Latitude Longitude Altitude Speed Heading
2026-05-06 18:41 43.67927 -79.63687 577 ft 0 kts 56°
2026-05-06 18:59 43.67923 -79.63695 573 ft 4 kts 54°
2026-05-06 18:59 43.67905 -79.63722 572 ft 4 kts 35°
2026-05-06 19:00 43.67882 -79.63736 569 ft 4 kts
2026-05-06 19:00 43.67862 -79.63729 569 ft 3 kts 317°
2026-05-06 19:00 43.67874 -79.63744 575 ft 4 kts 317°
2026-05-06 19:00 43.67883 -79.63756 575 ft 2 kts 316°
2026-05-06 19:03 43.67885 -79.63758 575 ft 1 kts 316°
2026-05-06 19:04 43.67898 -79.63775 569 ft 5 kts 316°
2026-05-06 19:04 43.67938 -79.63829 569 ft 11 kts 316°
2026-05-06 19:04 43.68017 -79.63887 577 ft 14 kts
2026-05-06 19:04 43.68095 -79.63801 571 ft 16 kts 47°
2026-05-06 19:05 43.68183 -79.63674 571 ft 20 kts 47°
2026-05-06 19:05 43.68271 -79.63509 569 ft 21 kts 46°
2026-05-06 19:05 43.68362 -79.63439 572 ft 13 kts 342°
2026-05-06 19:05 43.68420 -79.63514 569 ft 11 kts 314°
2026-05-06 19:06 43.68479 -79.63593 574 ft 12 kts 320°
2026-05-06 19:06 43.68543 -79.63676 569 ft 14 kts 317°
2026-05-06 19:06 43.68619 -79.63773 571 ft 16 kts 317°
2026-05-06 19:06 43.68669 -79.63915 570 ft 19 kts 271°
2026-05-06 19:07 43.68673 -79.64131 569 ft 25 kts 271°
2026-05-06 19:07 43.68582 -79.64309 572 ft 24 kts 226°
2026-05-06 19:07 43.68467 -79.64476 569 ft 23 kts 226°
2026-05-06 19:07 43.68398 -79.64576 574 ft 14 kts 226°
2026-05-06 19:08 43.68329 -79.64676 574 ft 13 kts 226°
2026-05-06 19:08 43.68268 -79.64763 575 ft 12 kts 226°
2026-05-06 19:08 43.68205 -79.64855 571 ft 14 kts 226°
2026-05-06 19:08 43.68133 -79.64958 570 ft 16 kts 226°
2026-05-06 19:09 43.68052 -79.65075 570 ft 18 kts 226°
2026-05-06 19:09 43.67961 -79.65211 568 ft 20 kts 227°
2026-05-06 19:09 43.67865 -79.65349 574 ft 21 kts 226°
2026-05-06 19:09 43.67767 -79.65490 572 ft 19 kts 226°
2026-05-06 19:10 43.67674 -79.65625 573 ft 20 kts 226°
2026-05-06 19:10 43.67582 -79.65758 575 ft 19 kts 226°
2026-05-06 19:10 43.67489 -79.65893 572 ft 21 kts 226°
2026-05-06 19:10 43.67388 -79.66039 574 ft 22 kts 226°
2026-05-06 19:11 43.67287 -79.66189 570 ft 15 kts 236°
2026-05-06 19:11 43.67309 -79.66286 571 ft 12 kts 319°
2026-05-06 19:11 43.67381 -79.66360 572 ft 13 kts 329°
2026-05-06 19:11 43.67455 -79.66351 562 ft 10 kts 46°
2026-05-06 19:12 43.67506 -79.66276 568 ft 14 kts 47°
2026-05-06 19:12 43.67721 -79.65963 573 ft 79 kts 46°
2026-05-06 19:12 43.68252 -79.65192 575 ft 140 kts 46°
2026-05-06 19:12 43.69030 -79.64062 693 ft 174 kts 46°
2026-05-06 19:13 43.69879 -79.62808 1154 ft 193 kts 47°
2026-05-06 19:13 43.70836 -79.61425 1736 ft 206 kts 45°
2026-05-06 19:13 43.71912 -79.59998 2360 ft 220 kts 41°
2026-05-06 19:13 43.73101 -79.58642 3108 ft 224 kts 36°
2026-05-06 19:14 43.74407 -79.57525 3781 ft 230 kts 23°
2026-05-06 19:14 43.75971 -79.56948 4437 ft 237 kts
2026-05-06 19:14 43.77646 -79.57188 4989 ft 249 kts 347°
2026-05-06 19:14 43.79410 -79.57604 5492 ft 266 kts 352°
2026-05-06 19:15 43.81290 -79.57898 6141 ft 273 kts 354°
2026-05-06 19:15 43.83183 -79.58107 6971 ft 275 kts 355°
2026-05-06 19:15 43.85112 -79.58262 7730 ft 279 kts 356°
2026-05-06 19:15 43.87035 -79.58382 8470 ft 282 kts 357°
2026-05-06 19:16 43.89008 -79.58484 9204 ft 286 kts 358°
2026-05-06 19:16 43.91009 -79.58517 9919 ft 289 kts 360°
2026-05-06 19:16 43.93038 -79.58510 10491 ft 299 kts 360°
2026-05-06 19:16 43.95185 -79.58501 10755 ft 318 kts 360°
2026-05-06 19:17 43.97468 -79.58492 10979 ft 338 kts 360°
2026-05-06 19:17 43.99873 -79.58475 11264 ft 354 kts
2026-05-06 19:17 44.02304 -79.57757 11810 ft 358 kts 19°
2026-05-06 19:17 44.04643 -79.56643 12446 ft 363 kts 18°
2026-05-06 19:18 44.07040 -79.55510 13061 ft 366 kts 19°
2026-05-06 19:18 44.09461 -79.54348 13685 ft 370 kts 19°
2026-05-06 19:18 44.11899 -79.53168 14298 ft 373 kts 19°
2026-05-06 19:18 44.14359 -79.51975 14901 ft 376 kts 19°
2026-05-06 19:19 44.16845 -79.50765 15495 ft 379 kts 19°
2026-05-06 19:19 44.19344 -79.49548 16069 ft 383 kts 19°
2026-05-06 19:19 44.21869 -79.48317 16628 ft 386 kts 19°
2026-05-06 19:19 44.24409 -79.47077 17177 ft 389 kts 19°
2026-05-06 19:20 44.26945 -79.45839 17696 ft 392 kts 19°
2026-05-06 19:20 44.29530 -79.44575 18219 ft 395 kts 19°
2026-05-06 19:20 44.32133 -79.43301 18720 ft 398 kts 19°
2026-05-06 19:20 44.34758 -79.42015 19213 ft 401 kts 19°
2026-05-06 19:21 44.37397 -79.40721 19696 ft 404 kts 19°
2026-05-06 19:21 44.39925 -79.38987 20154 ft 406 kts 31°
2026-05-06 19:21 44.42354 -79.36939 20592 ft 410 kts 30°
2026-05-06 19:21 44.44809 -79.34885 21040 ft 412 kts 31°
2026-05-06 19:22 44.47280 -79.32808 21477 ft 415 kts 31°
2026-05-06 19:22 44.49726 -79.30748 21900 ft 418 kts 31°
2026-05-06 19:22 44.52229 -79.28637 22326 ft 420 kts 31°
2026-05-06 19:22 44.54741 -79.26517 22731 ft 423 kts 31°
2026-05-06 19:23 44.57267 -79.24382 23134 ft 426 kts 31°
2026-05-06 19:23 44.59812 -79.22230 23516 ft 428 kts 31°
2026-05-06 19:23 44.62370 -79.20063 23902 ft 431 kts 31°
2026-05-06 19:23 44.64943 -79.17882 24271 ft 433 kts 31°
2026-05-06 19:24 44.67525 -79.15691 24633 ft 435 kts 31°
2026-05-06 19:24 44.70130 -79.13479 24988 ft 438 kts 31°
2026-05-06 19:24 44.72705 -79.11289 25328 ft 440 kts 31°
2026-05-06 19:24 44.75329 -79.09055 25667 ft 442 kts 31°
2026-05-06 19:25 44.77968 -79.06805 25994 ft 445 kts 31°
2026-05-06 19:25 44.80624 -79.04540 26312 ft 447 kts 31°
2026-05-06 19:25 44.83290 -79.02263 26633 ft 449 kts 31°
2026-05-06 19:25 44.85964 -78.99978 26934 ft 451 kts 31°
2026-05-06 19:26 44.88650 -78.97658 27236 ft 453 kts 31°
2026-05-06 19:26 44.91333 -78.95313 27527 ft 455 kts 31°
2026-05-06 19:26 44.93998 -78.92984 27807 ft 457 kts 31°
2026-05-06 19:26 44.96705 -78.90617 28084 ft 459 kts 31°
2026-05-06 19:27 44.99433 -78.88231 28360 ft 461 kts 31°
2026-05-06 19:27 45.02160 -78.85842 28630 ft 463 kts 31°
2026-05-06 19:27 45.04909 -78.83431 28897 ft 465 kts 31°
2026-05-06 19:27 45.07658 -78.81018 29232 ft 465 kts 31°
2026-05-06 19:28 45.10396 -78.78611 29586 ft 464 kts 32°
2026-05-06 19:28 45.13141 -78.76195 29930 ft 463 kts 32°
2026-05-06 19:28 45.15838 -78.73820 30263 ft 463 kts 32°
2026-05-06 19:28 45.18571 -78.71409 30593 ft 462 kts 32°
2026-05-06 19:29 45.21298 -78.69001 30912 ft 462 kts 32°
2026-05-06 19:29 45.24020 -78.66595 31222 ft 461 kts 32°
2026-05-06 19:29 45.26740 -78.64188 31526 ft 461 kts 32°
2026-05-06 19:29 45.29458 -78.61780 31822 ft 460 kts 32°
2026-05-06 19:30 45.32170 -78.59374 32124 ft 460 kts 32°
2026-05-06 19:30 45.34881 -78.56967 32390 ft 459 kts 32°
2026-05-06 19:30 45.37554 -78.54591 32671 ft 458 kts 32°
2026-05-06 19:30 45.40251 -78.52191 32933 ft 458 kts 32°
2026-05-06 19:31 45.42956 -78.49780 33192 ft 458 kts 32°
2026-05-06 19:31 45.45652 -78.47375 33443 ft 457 kts 32°
2026-05-06 19:31 45.51033 -78.42568 33960 ft 456 kts 32°
2026-05-06 19:32 45.53735 -78.40205 34193 ft 455 kts 31°
2026-05-06 19:32 45.56448 -78.37880 34426 ft 455 kts 31°
2026-05-06 19:32 45.59163 -78.35542 34647 ft 454 kts 31°
2026-05-06 19:32 45.61832 -78.33239 34862 ft 454 kts 31°
2026-05-06 19:33 45.64568 -78.30873 35014 ft 455 kts 31°
2026-05-06 19:33 45.67243 -78.28559 35009 ft 455 kts 31°
2026-05-06 19:33 45.72632 -78.23888 35017 ft 452 kts 31°
2026-05-06 19:34 45.78016 -78.19210 35004 ft 453 kts 31°
2026-05-06 19:34 45.83399 -78.14522 34997 ft 452 kts 31°
2026-05-06 19:35 45.88740 -78.09861 35003 ft 452 kts 31°
2026-05-06 19:35 45.94120 -78.05155 34999 ft 452 kts 31°
2026-05-06 19:36 45.99483 -78.00465 35003 ft 451 kts 30°
2026-05-06 19:36 46.04903 -77.95888 35003 ft 452 kts 30°
2026-05-06 19:37 46.10280 -77.91325 35006 ft 452 kts 30°
2026-05-06 19:37 46.14780 -77.87497 34999 ft 451 kts 30°
2026-05-06 19:38 46.21093 -77.82114 34995 ft 451 kts 30°
2026-05-06 19:38 46.26500 -77.77492 35002 ft 452 kts 30°
2026-05-06 19:39 46.31912 -77.72855 34998 ft 452 kts 30°
2026-05-06 19:39 46.37288 -77.68238 35005 ft 452 kts 30°
2026-05-06 19:40 46.42693 -77.63586 35003 ft 452 kts 30°
2026-05-06 19:40 46.48096 -77.58924 35001 ft 452 kts 30°
2026-05-06 19:41 46.53500 -77.54251 35002 ft 452 kts 31°
2026-05-06 19:41 46.58874 -77.49592 35000 ft 453 kts 31°
2026-05-06 19:42 46.64276 -77.44899 34995 ft 452 kts 31°
2026-05-06 19:42 46.69681 -77.40192 34998 ft 452 kts 31°
2026-05-06 19:43 46.75078 -77.35480 35003 ft 453 kts 31°
2026-05-06 19:43 46.80478 -77.30755 34993 ft 452 kts 31°
2026-05-06 19:44 46.85840 -77.26052 35005 ft 452 kts 31°
2026-05-06 19:44 46.91233 -77.21310 34999 ft 453 kts 31°
2026-05-06 19:45 46.96626 -77.16558 35001 ft 452 kts 31°
2026-05-06 19:45 47.02015 -77.11797 35001 ft 453 kts 31°
2026-05-06 19:46 47.07372 -77.07054 35000 ft 453 kts 31°
2026-05-06 19:46 47.12756 -77.02275 35003 ft 452 kts 31°
2026-05-06 19:47 47.18146 -76.97479 35001 ft 453 kts 31°
2026-05-06 19:47 47.23529 -76.92679 34995 ft 452 kts 31°
2026-05-06 19:48 47.28875 -76.87900 34994 ft 452 kts 31°
2026-05-06 19:48 47.34252 -76.83081 35002 ft 453 kts 31°
2026-05-06 19:49 47.39631 -76.78248 35002 ft 453 kts 31°
2026-05-06 19:49 47.45003 -76.73412 35003 ft 453 kts 31°
2026-05-06 19:50 47.50376 -76.68561 35003 ft 452 kts 31°
2026-05-06 19:50 47.55712 -76.63733 34999 ft 452 kts 31°
2026-05-06 19:51 47.61081 -76.58863 35003 ft 453 kts 31°
2026-05-06 19:51 47.66449 -76.53982 34999 ft 453 kts 31°
2026-05-06 19:52 47.71814 -76.49092 34998 ft 452 kts 31°
2026-05-06 19:52 47.77179 -76.44189 34999 ft 453 kts 31°
2026-05-06 19:53 47.82506 -76.39311 34999 ft 453 kts 31°
2026-05-06 19:53 47.87862 -76.34393 34998 ft 453 kts 31°
2026-05-06 19:54 47.93223 -76.29458 35004 ft 453 kts 31°
2026-05-06 19:54 47.98585 -76.24510 35002 ft 453 kts 31°
2026-05-06 19:55 48.03948 -76.19550 34993 ft 453 kts 31°
2026-05-06 19:55 48.09273 -76.14611 34995 ft 453 kts 31°
2026-05-06 19:56 48.14631 -76.09631 35003 ft 453 kts 32°
2026-05-06 19:56 48.19980 -76.04645 34997 ft 453 kts 32°
2026-05-06 19:57 48.25337 -75.99641 35007 ft 453 kts 32°
2026-05-06 19:57 48.30649 -75.94665 34997 ft 453 kts 32°
2026-05-06 19:58 48.35997 -75.89644 34998 ft 453 kts 32°
2026-05-06 19:58 48.41343 -75.84611 34995 ft 453 kts 32°
2026-05-06 19:59 48.46679 -75.79576 34997 ft 453 kts 32°
2026-05-06 19:59 48.52020 -75.74524 34995 ft 453 kts 32°
2026-05-06 20:00 48.57319 -75.69498 35006 ft 453 kts 32°
2026-05-06 20:00 48.62652 -75.64427 34996 ft 453 kts 32°
2026-05-06 20:01 48.67986 -75.59343 34994 ft 453 kts 32°
2026-05-06 20:01 48.73318 -75.54248 34997 ft 453 kts 32°
2026-05-06 20:02 48.78646 -75.49143 35005 ft 453 kts 32°
2026-05-06 20:02 48.83937 -75.44060 35001 ft 453 kts 32°
2026-05-06 20:03 48.89264 -75.38931 34994 ft 453 kts 32°
2026-05-06 20:03 48.94583 -75.33796 34999 ft 453 kts 32°
2026-05-06 20:04 48.99910 -75.28640 35001 ft 453 kts 32°
2026-05-06 20:04 49.05189 -75.23517 35003 ft 453 kts 32°
2026-05-06 20:05 49.10509 -75.18341 34996 ft 453 kts 32°
2026-05-06 20:05 49.15824 -75.13157 35003 ft 453 kts 32°
2026-05-06 20:06 49.21135 -75.07964 34997 ft 453 kts 32°
2026-05-06 20:06 49.26406 -75.02795 34997 ft 453 kts 32°
2026-05-06 20:07 49.31712 -74.97580 34999 ft 453 kts 32°
2026-05-06 20:07 49.37016 -74.92353 35000 ft 453 kts 32°
2026-05-06 20:08 49.42317 -74.87115 35008 ft 453 kts 32°
2026-05-06 20:08 49.47614 -74.81870 35005 ft 453 kts 32°
2026-05-06 20:09 49.52021 -74.77496 34999 ft 453 kts 32°
2026-05-06 20:09 49.58170 -74.71379 35002 ft 453 kts 33°
2026-05-06 20:10 49.63463 -74.66097 35004 ft 453 kts 33°
2026-05-06 20:10 49.67859 -74.61701 35003 ft 453 kts 33°
2026-05-06 20:11 49.73149 -74.56398 35001 ft 453 kts 33°
2026-05-06 20:11 49.79295 -74.50207 34997 ft 453 kts 35°
2026-05-06 20:12 49.82788 -74.45815 35021 ft 453 kts 39°
2026-05-06 20:12 49.87695 -74.39671 35000 ft 453 kts 38°
2026-05-06 20:13 49.92621 -74.33561 35003 ft 454 kts 38°
2026-05-06 20:13 49.98356 -74.26436 35004 ft 454 kts 38°
2026-05-06 20:14 50.02448 -74.21339 35004 ft 454 kts 38°
2026-05-06 20:14 50.07369 -74.15193 34998 ft 454 kts 38°
2026-05-06 20:15 50.12287 -74.09037 35000 ft 454 kts 38°
2026-05-06 20:15 50.17204 -74.02863 34994 ft 454 kts 39°
2026-05-06 20:16 50.22089 -73.96713 34999 ft 454 kts 39°
2026-05-06 20:16 50.26995 -73.90520 35007 ft 454 kts 39°
2026-05-06 20:17 50.31904 -73.84307 34994 ft 453 kts 39°
2026-05-06 20:17 50.36803 -73.78089 35004 ft 454 kts 39°
2026-05-06 20:18 50.41702 -73.71854 34998 ft 454 kts 39°
2026-05-06 20:18 50.46568 -73.65644 34996 ft 454 kts 39°
2026-05-06 20:19 50.51458 -73.59385 35000 ft 454 kts 39°
2026-05-06 20:19 50.56352 -73.53105 34998 ft 454 kts 39°
2026-05-06 20:20 50.61238 -73.46818 34996 ft 454 kts 39°
2026-05-06 20:20 50.66095 -73.40550 35001 ft 454 kts 39°
2026-05-06 20:21 50.70976 -73.34235 35003 ft 454 kts 39°
2026-05-06 20:21 50.75855 -73.27904 34998 ft 454 kts 39°
2026-05-06 20:22 50.80732 -73.21558 35005 ft 454 kts 39°
2026-05-06 20:22 50.85604 -73.15200 34999 ft 454 kts 39°
2026-05-06 20:23 50.90442 -73.08870 34998 ft 454 kts 39°
2026-05-06 20:23 50.95307 -73.02486 35002 ft 454 kts 39°
2026-05-06 20:24 51.00173 -72.96083 35000 ft 454 kts 39°
2026-05-06 20:24 51.05030 -72.89674 35005 ft 454 kts 39°
2026-05-06 20:25 51.09889 -72.83244 34993 ft 454 kts 39°
2026-05-06 20:25 51.14709 -72.76848 34998 ft 454 kts 39°
2026-05-06 20:26 51.19558 -72.70396 34996 ft 454 kts 39°
2026-05-06 20:26 51.24404 -72.63932 35000 ft 454 kts 40°
2026-05-06 20:27 51.29246 -72.57457 35001 ft 454 kts 40°
2026-05-06 20:27 51.34051 -72.51017 35000 ft 454 kts 39°
2026-05-06 20:28 51.39272 -72.45348 35001 ft 455 kts 34°
2026-05-06 20:28 51.44494 -72.39657 35009 ft 455 kts 34°
2026-05-06 20:29 51.49708 -72.33915 35003 ft 454 kts 34°
2026-05-06 20:29 51.54916 -72.28160 35002 ft 455 kts 34°
2026-05-06 20:30 51.62689 -72.19540 35002 ft 454 kts 34°
2026-05-06 20:31 51.67894 -72.13746 35003 ft 455 kts 34°
2026-05-06 20:31 51.73096 -72.07941 34994 ft 455 kts 34°
2026-05-06 20:32 51.78296 -72.02121 35000 ft 456 kts 34°
2026-05-06 20:32 51.83504 -71.96274 34999 ft 455 kts 34°
2026-05-06 20:33 51.88668 -71.90461 35005 ft 456 kts 34°
2026-05-06 20:33 51.93867 -71.84592 34997 ft 455 kts 34°
2026-05-06 20:34 51.99060 -71.78713 35003 ft 455 kts 34°
2026-05-06 20:34 52.04250 -71.72819 34998 ft 455 kts 35°
2026-05-06 20:35 52.09405 -71.66949 35001 ft 456 kts 35°
2026-05-06 20:35 52.14598 -71.61018 35005 ft 456 kts 35°
2026-05-06 20:36 52.19793 -71.55068 35006 ft 456 kts 35°
2026-05-06 20:36 52.24982 -71.49107 34999 ft 456 kts 35°
2026-05-06 20:37 52.30136 -71.43170 34998 ft 457 kts 35°
2026-05-06 20:37 52.35319 -71.37182 34996 ft 456 kts 35°
2026-05-06 20:38 52.40492 -71.31187 35003 ft 456 kts 35°
2026-05-06 20:38 52.45663 -71.25178 34995 ft 455 kts 35°
2026-05-06 20:39 52.50825 -71.19160 35007 ft 455 kts 35°
2026-05-06 20:39 52.55946 -71.13173 35003 ft 455 kts 35°
2026-05-06 20:40 52.61100 -71.07130 34996 ft 455 kts 35°
2026-05-06 20:40 52.66257 -71.01066 35001 ft 455 kts 35°
2026-05-06 20:41 52.71408 -70.94991 35004 ft 455 kts 35°
2026-05-06 20:41 52.76520 -70.88944 34994 ft 455 kts 35°
2026-05-06 20:42 52.81667 -70.82837 34999 ft 455 kts 36°
2026-05-06 20:42 52.86810 -70.76718 34997 ft 455 kts 36°
2026-05-06 20:43 52.91945 -70.70588 35003 ft 455 kts 36°
2026-05-06 20:43 52.97047 -70.64481 34994 ft 455 kts 36°
2026-05-06 20:44 53.02179 -70.58320 34994 ft 455 kts 36°
2026-05-06 20:44 53.07311 -70.52139 35000 ft 455 kts 36°
2026-05-06 20:45 53.12438 -70.45947 35005 ft 455 kts 36°
2026-05-06 20:45 53.17529 -70.39779 35006 ft 456 kts 36°
2026-05-06 20:46 53.22655 -70.33550 35005 ft 456 kts 36°
2026-05-06 20:46 53.27775 -70.27308 35003 ft 456 kts 36°
2026-05-06 20:47 53.32894 -70.21053 34999 ft 456 kts 36°
2026-05-06 20:47 53.37977 -70.14825 34999 ft 456 kts 36°
2026-05-06 20:48 53.43091 -70.08540 35004 ft 456 kts 36°
2026-05-06 20:48 53.48202 -70.02239 34994 ft 456 kts 36°
2026-05-06 20:49 53.53216 -69.95731 35008 ft 456 kts 38°
2026-05-06 20:49 53.58216 -69.89182 35001 ft 456 kts 38°
2026-05-06 20:50 53.63190 -69.82659 34994 ft 456 kts 38°
2026-05-06 20:50 53.68182 -69.76093 34996 ft 456 kts 38°
2026-05-06 20:51 53.73180 -69.69499 35001 ft 456 kts 38°
2026-05-06 20:51 53.78170 -69.62895 34999 ft 456 kts 38°
2026-05-06 20:52 53.83126 -69.56317 34999 ft 456 kts 38°
2026-05-06 20:52 53.88107 -69.49683 34993 ft 456 kts 38°
2026-05-06 20:53 53.93086 -69.43032 35003 ft 456 kts 38°
2026-05-06 20:53 53.98064 -69.36362 35003 ft 456 kts 38°
2026-05-06 20:54 54.03035 -69.29680 35004 ft 456 kts 38°
2026-05-06 20:54 54.07972 -69.23023 35007 ft 456 kts 38°
2026-05-06 20:55 54.12934 -69.16311 34994 ft 456 kts 38°
2026-05-06 20:55 54.17896 -69.09579 34995 ft 456 kts 38°
2026-05-06 20:56 54.22856 -69.02826 35000 ft 456 kts 38°
2026-05-06 20:56 54.27809 -68.96062 35008 ft 456 kts 38°
2026-05-06 20:57 54.32728 -68.89324 35004 ft 456 kts 38°
2026-05-06 20:57 54.37675 -68.82526 34997 ft 456 kts 38°
2026-05-06 20:58 54.42624 -68.75704 35000 ft 456 kts 38°
2026-05-06 20:58 54.47533 -68.68915 34997 ft 456 kts 39°
2026-05-06 20:59 54.52466 -68.62071 34999 ft 456 kts 39°
2026-05-06 20:59 54.57404 -68.55199 34999 ft 456 kts 39°
2026-05-06 21:00 54.62338 -68.48309 35004 ft 456 kts 39°
2026-05-06 21:00 54.67271 -68.41399 35003 ft 456 kts 39°
2026-05-06 21:01 54.72163 -68.34524 35002 ft 456 kts 39°
2026-05-06 21:01 54.77079 -68.27593 34996 ft 456 kts 39°
2026-05-06 21:02 54.81996 -68.20639 35004 ft 456 kts 39°
2026-05-06 21:02 54.86909 -68.13667 34998 ft 456 kts 39°
2026-05-06 21:03 54.91814 -68.06684 35007 ft 456 kts 39°
2026-05-06 21:03 54.96682 -67.99731 35004 ft 456 kts 39°
2026-05-06 21:04 55.01579 -67.92714 34998 ft 456 kts 39°
2026-05-06 21:04 55.06480 -67.85669 35007 ft 456 kts 39°
2026-05-06 21:05 55.11371 -67.78614 35004 ft 456 kts 39°
2026-05-06 21:05 55.16225 -67.71590 34996 ft 456 kts 39°
2026-05-06 21:06 55.21106 -67.64503 35007 ft 456 kts 39°
2026-05-06 21:06 55.25980 -67.57405 34994 ft 456 kts 39°
2026-05-06 21:07 55.30859 -67.50274 35007 ft 457 kts 39°
2026-05-06 21:07 55.35735 -67.43125 35007 ft 456 kts 40°
2026-05-06 21:08 55.40563 -67.36022 34999 ft 455 kts 40°
2026-05-06 21:08 55.45416 -67.28861 35003 ft 455 kts 40°
2026-05-06 21:09 55.50275 -67.21670 35001 ft 456 kts 40°
2026-05-06 21:09 55.55123 -67.14474 34998 ft 456 kts 40°
2026-05-06 21:10 55.59942 -67.07296 34999 ft 456 kts 40°
2026-05-06 21:10 55.64770 -67.00005 34987 ft 456 kts 45°
2026-05-06 21:11 55.69065 -66.91742 35004 ft 456 kts 47°
2026-05-06 21:11 55.73328 -66.83442 35012 ft 456 kts 47°
2026-05-06 21:12 55.77595 -66.75098 35001 ft 456 kts 47°
2026-05-06 21:12 55.81822 -66.66803 34997 ft 456 kts 47°
2026-05-06 21:13 55.86065 -66.58446 34996 ft 456 kts 47°
2026-05-06 21:13 55.90312 -66.50050 35002 ft 456 kts 48°
2026-05-06 21:14 55.94548 -66.41649 35001 ft 456 kts 48°
2026-05-06 21:14 55.98750 -66.33284 34997 ft 455 kts 48°
2026-05-06 21:15 56.02976 -66.24842 35006 ft 455 kts 48°
2026-05-06 21:15 56.07192 -66.16390 35006 ft 455 kts 48°
2026-05-06 21:16 56.11403 -66.07919 35003 ft 456 kts 48°
2026-05-06 21:16 56.15618 -65.99409 34997 ft 456 kts 48°
2026-05-06 21:17 56.19793 -65.90949 35002 ft 455 kts 48°
2026-05-06 21:17 56.23988 -65.82419 35006 ft 456 kts 48°
2026-05-06 21:18 56.28176 -65.73871 34997 ft 456 kts 48°
2026-05-06 21:18 56.32362 -65.65297 34997 ft 456 kts 49°
2026-05-06 21:19 56.36516 -65.56760 34999 ft 456 kts 49°
2026-05-06 21:19 56.40691 -65.48147 35002 ft 456 kts 49°
2026-05-06 21:20 56.44860 -65.39514 35000 ft 456 kts 49°
2026-05-06 21:20 56.49026 -65.30857 34996 ft 456 kts 49°
2026-05-06 21:21 56.53185 -65.22183 35000 ft 456 kts 49°
2026-05-06 21:21 56.57317 -65.13535 35006 ft 457 kts 49°
2026-05-06 21:22 56.61467 -65.04815 34992 ft 457 kts 49°
2026-05-06 21:22 56.65612 -64.96076 35003 ft 456 kts 49°
2026-05-06 21:23 56.69751 -64.87317 35003 ft 456 kts 49°
2026-05-06 21:23 56.73877 -64.78553 35000 ft 455 kts 49°
2026-05-06 21:24 56.77967 -64.69831 35007 ft 456 kts 49°
2026-05-06 21:24 56.82078 -64.61035 35006 ft 457 kts 49°
2026-05-06 21:25 56.86197 -64.52187 35003 ft 457 kts 49°